Location: Rocktram
(38.2574°N, 122.2805°W)
Time: 01:37:47
(UTC+00:00)

Cosmos 2219 Rocket - Pass Details

Date: 30 March 2020
Orbit: 829 x 845 km, 71.0° (Epoch: 27 May)

Event Time Altitude Azimuth Distance (km) Brightness Sun altitude
Rises 02:46:32 0° 230° (SW) 3,389 6.0 -4.0°
Reaches altitude 10° 02:49:17 10° 242° (WSW) 2,456 5.5 -4.5°
Maximum altitude 02:54:09 29° 302° (WNW) 1,484 4.4 -5.5°
Drops below altitude 10° 02:59:03 10° 2° (N) 2,459 4.7 -6.4°
Sets 03:01:49 0° 13° (NNE) 3,394 5.3 -7.0°
